| time (UTC) | temp F | wind direction | speed MPH | gust MPH | rain 1hr in | rain 24hr in | rain mn in | humidity % | barometer mb |
| 20260504045018 | 51 | 186 | 7.0 | 13.0 | 0.00 | 0.01 | 0.00 | 64 | 1012.2 |
| 20260504044019 | 51 | 188 | 7.0 | 12.0 | 0.00 | 0.01 | 0.00 | 65 | 1012.2 |
| 20260504043015 | 50 | 181 | 7.0 | 12.0 | 0.00 | 0.01 | 0.00 | 67 | 1012.3 |
| 20260504042016 | 50 | 177 | 6.0 | 8.0 | 0.00 | 0.01 | 0.00 | 69 | 1012.4 |
| 20260504041016 | 49 | 176 | 6.0 | 10.0 | 0.00 | 0.01 | 0.00 | 69 | 1012.4 |
| 20260504040020 | 49 | 180 | 6.0 | 11.0 | 0.00 | 0.01 | 0.00 | 70 | 1012.5 |
| 20260504035016 | 49 | 182 | 6.0 | 9.0 | 0.00 | 0.01 | 0.01 | 71 | 1012.5 |
| 20260504034016 | 49 | 177 | 7.0 | 9.0 | 0.00 | 0.01 | 0.01 | 70 | 1012.7 |
| 20260504033016 | 49 | 181 | 7.0 | 10.0 | 0.00 | 0.01 | 0.01 | 70 | 1012.7 |
| 20260504032016 | 49 | 180 | 6.0 | 10.0 | 0.00 | 0.01 | 0.01 | 71 | 1012.8 |
| 20260504031037 | 48 | 183 | 5.0 | 9.0 | 0.00 | 0.01 | 0.01 | 72 | 1013.0 |
| 20260504030017 | 48 | 182 | 5.0 | 9.0 | 0.00 | 0.01 | 0.01 | 72 | 1013.1 |
| 20260504025017 | 48 | 183 | 5.0 | 8.0 | 0.00 | 0.01 | 0.01 | 73 | 1013.1 |
| 20260504024017 | 48 | 184 | 5.0 | 9.0 | 0.00 | 0.01 | 0.01 | 74 | 1013.2 |
| 20260504023017 | 48 | 184 | 5.0 | 8.0 | 0.00 | 0.01 | 0.01 | 74 | 1013.3 |
| 20260504021018 | 49 | 181 | 4.0 | 8.0 | 0.00 | 0.01 | 0.01 | 74 | 1013.4 |
| 20260504020038 | 49 | 179 | 5.0 | 8.0 | 0.00 | 0.01 | 0.01 | 73 | 1013.3 |
| 20260504015018 | 49 | 179 | 4.0 | 7.0 | 0.00 | 0.01 | 0.01 | 74 | 1013.3 |
| 20260504014018 | 49 | 180 | 4.0 | 6.0 | 0.00 | 0.01 | 0.01 | 75 | 1013.2 |
| 20260504013015 | 49 | 163 | 4.0 | 5.0 | 0.00 | 0.01 | 0.01 | 74 | 1013.2 |
| 20260504012017 | 49 | 177 | 4.0 | 7.0 | 0.00 | 0.01 | 0.01 | 73 | 1013.2 |
| 20260504011016 | 49 | 181 | 4.0 | 7.0 | 0.00 | 0.01 | 0.01 | 73 | 1013.2 |
| 20260504010016 | 49 | 180 | 4.0 | 6.0 | 0.00 | 0.01 | 0.01 | 72 | 1013.4 |
| 20260504005016 | 49 | 198 | 3.0 | 5.0 | 0.00 | 0.01 | 0.01 | 72 | 1013.5 |
| 20260504004016 | 50 | 190 | 6.0 | 9.0 | 0.00 | 0.01 | 0.01 | 71 | 1013.5 |
| 20260504003017 | 50 | 197 | 3.0 | 6.0 | 0.00 | 0.01 | 0.01 | 70 | 1013.6 |
| 20260504002017 | 50 | 223 | 5.0 | 17.0 | 0.00 | 0.01 | 0.01 | 68 | 1013.8 |
| 20260504001017 | 51 | 234 | 5.0 | 8.0 | 0.00 | 0.01 | 0.01 | 67 | 1013.8 |
| 20260504000017 | 51 | 227 | 5.0 | 15.0 | 0.00 | 0.01 | 0.01 | 65 | 1013.8 |
| 20260503235037 | 52 | 243 | 8.0 | 14.0 | 0.00 | 0.01 | 0.01 | 63 | 1013.7 |
| 20260503234017 | 54 | 252 | 7.0 | 10.0 | 0.00 | 0.01 | 0.01 | 61 | 1013.5 |
| 20260503233018 | 56 | 246 | 8.0 | 17.0 | 0.00 | 0.01 | 0.01 | 51 | 1013.3 |
| 20260503232018 | 57 | 240 | 6.0 | 13.0 | 0.00 | 0.01 | 0.01 | 47 | 1013.1 |
| 20260503231018 | 57 | 224 | 5.0 | 9.0 | 0.00 | 0.01 | 0.01 | 47 | 1013.0 |
| 20260503230038 | 57 | 229 | 6.0 | 10.0 | 0.01 | 0.01 | 0.01 | 46 | 1013.1 |
| 20260503225018 | 58 | 212 | 6.0 | 11.0 | 0.01 | 0.01 | 0.01 | 45 | 1013.2 |
| 20260503224016 | 58 | 220 | 5.0 | 10.0 | 0.01 | 0.01 | 0.01 | 46 | 1013.2 |
| 20260503223016 | 58 | 234 | 4.0 | 11.0 | 0.01 | 0.01 | 0.01 | 46 | 1013.3 |
| 20260503222016 | 58 | 223 | 5.0 | 13.0 | 0.01 | 0.01 | 0.01 | 46 | 1013.4 |
| 20260503221016 | 58 | 226 | 4.0 | 9.0 | 0.01 | 0.01 | 0.01 | 47 | 1013.5 |
| 20260503220016 | 58 | 234 | 5.0 | 10.0 | 0.00 | 0.00 | 0.00 | 45 | 1013.5 |
| 20260503215016 | 58 | 225 | 6.0 | 15.0 | 0.00 | 0.00 | 0.00 | 45 | 1013.5 |
| 20260503214016 | 59 | 241 | 6.0 | 14.0 | 0.00 | 0.00 | 0.00 | 46 | 1013.5 |
| 20260503213017 | 59 | 224 | 6.0 | 14.0 | 0.00 | 0.00 | 0.00 | 45 | 1013.5 |
| 20260503212017 | 59 | 232 | 5.0 | 10.0 | 0.00 | 0.00 | 0.00 | 46 | 1013.6 |
| 20260503211018 | 59 | 216 | 6.0 | 11.0 | 0.00 | 0.00 | 0.00 | 46 | 1013.6 |
| 20260503210037 | 59 | 215 | 7.0 | 14.0 | 0.00 | 0.00 | 0.00 | 46 | 1013.8 |
| 20260503205017 | 59 | 231 | 5.0 | 12.0 | 0.00 | 0.00 | 0.00 | 46 | 1013.9 |
| 20260503204017 | 59 | 246 | 7.0 | 18.0 | 0.00 | 0.00 | 0.00 | 46 | 1013.9 |
| 20260503203018 | 59 | 248 | 7.0 | 15.0 | 0.00 | 0.00 | 0.00 | 46 | 1014.0 |
| 20260503202018 | 59 | 250 | 7.0 | 14.0 | 0.00 | 0.00 | 0.00 | 46 | 1014.1 |
| 20260503201018 | 59 | 249 | 7.0 | 14.0 | 0.00 | 0.00 | 0.00 | 46 | 1014.2 |
| 20260503200018 | 59 | 212 | 7.0 | 12.0 | 0.00 | 0.00 | 0.00 | 46 | 1014.3 |
| 20260503195016 | 59 | 242 | 5.0 | 11.0 | 0.00 | 0.00 | 0.00 | 46 | 1014.4 |
| 20260503194015 | 60 | 226 | 8.0 | 16.0 | 0.00 | 0.00 | 0.00 | 44 | 1014.6 |
| 20260503193016 | 59 | 235 | 6.0 | 13.0 | 0.00 | 0.00 | 0.00 | 47 | 1014.7 |
| 20260503192016 | 59 | 246 | 6.0 | 12.0 | 0.00 | 0.00 | 0.00 | 47 | 1014.9 |
| 20260503191016 | 59 | 215 | 8.0 | 16.0 | 0.00 | 0.00 | 0.00 | 46 | 1015.0 |
| 20260503190016 | 59 | 233 | 6.0 | 13.0 | 0.00 | 0.00 | 0.00 | 47 | 1015.2 |
| 20260503185017 | 59 | 209 | 8.0 | 14.0 | 0.00 | 0.00 | 0.00 | 47 | 1015.3 |
| 20260503184020 | 59 | 214 | 7.0 | 13.0 | 0.00 | 0.00 | 0.00 | 48 | 1015.5 |
| 20260503183016 | 58 | 226 | 6.0 | 12.0 | 0.00 | 0.00 | 0.00 | 48 | 1015.5 |
| 20260503182017 | 58 | 223 | 5.0 | 13.0 | 0.00 | 0.00 | 0.00 | 48 | 1015.7 |
| 20260503181017 | 58 | 205 | 9.0 | 15.0 | 0.00 | 0.00 | 0.00 | 46 | 1015.7 |
| 20260503180017 | 58 | 244 | 7.0 | 12.0 | 0.00 | 0.00 | 0.00 | 46 | 1015.9 |
| 20260503175018 | 58 | 222 | 6.0 | 12.0 | 0.00 | 0.00 | 0.00 | 45 | 1015.9 |
| 20260503174017 | 58 | 230 | 6.0 | 13.0 | 0.00 | 0.00 | 0.00 | 48 | 1016.0 |
| 20260503173018 | 58 | 234 | 4.0 | 10.0 | 0.00 | 0.00 | 0.00 | 49 | 1016.1 |
| 20260503171018 | 58 | 245 | 6.0 | 13.0 | 0.00 | 0.00 | 0.00 | 49 | 1016.5 |
| 20260503131016 | 45 | 196 | 4.0 | 9.0 | 0.00 | 0.04 | 0.00 | 67 | 1017.7 |
| 20260503081020 | 34 | 157 | 1.0 | 4.0 | 0.00 | 0.04 | 0.00 | 89 | 1016.9 |
| 20260503072017 | 35 | 161 | 1.0 | 3.0 | 0.00 | 0.04 | 0.00 | 86 | 1016.9 |
| 20260503071017 | 35 | 151 | 1.0 | 3.0 | 0.00 | 0.04 | 0.00 | 87 | 1016.9 |
| 20260503055018 | 35 | 146 | 0.0 | 1.0 | 0.00 | 0.04 | 0.00 | 89 | 1017.3 |
| 20260503054035 | 36 | 136 | 1.0 | 3.0 | 0.00 | 0.04 | 0.00 | 88 | 1017.3 |
| 20260503053018 | 36 | 145 | 0.0 | 2.0 | 0.00 | 0.04 | 0.00 | 89 | 1017.3 |
| 20260503052019 | 36 | 309 | 0.0 | 0.0 | 0.00 | 0.04 | 0.00 | 89 | 1017.3 |
| 20260503051015 | 36 | 0.0 | 0.0 | 0.00 | 0.04 | 0.00 | 88 | 1017.3 | |
| 20260503050016 | 36 | 194 | 1.0 | 3.0 | 0.00 | 0.04 | 0.00 | 89 | 1017.3 |